Location: Oberstdorf
(47.4188°N, 10.2969°E)
Time: 09:54:24
(UTC+01:00)

ISS - Pass Details

Date: 06 January 2018
Orbit: 401 x 406 km, 51.6° (Epoch: 17 January)

Event Time Altitude Azimuth Distance (km) Brightness Sun altitude
Exits shadow 06:48:22 21° 308° (NW) 971 -2.5 -12.5°
Maximum altitude 06:50:07 39° 6° (N) 626 -3.0 -12.3°
Drops below altitude 10° 06:53:14 10° 78° (ENE) 1,468 -0.1 -11.8°
Sets 06:55:24 0° 86° (E) 2,329 1.3 -11.4°
